Regional Weather Roundup
Issued by NWS Sioux Falls, SD

Home | Current Version | Previous Version | Text Only | Print | Product List | Glossary On
Versions: 1 2 3 4 5 6 7 8 9 10 11 12 13 14 15 16 17 18 19 20 21 22 23 24 25 26 27 28 29 30 31 32 33 34 35 36 37 38 39 40 41 42 43 44 45 46 47 48 49 50
000
ASUS43 KFSD 201310
RWRFSD

WEATHER ROUNDUP FOR SE SOUTH DAKOTA/SW MINNESOTA/NW IOWA
NATIONAL WEATHER SERVICE SIOUX FALLS SD
700 AM CST SAT DEC 20 2014

NOTE: "FAIR" INDICATES FEW OR NO CLOUDS BELOW 12,000 FEET WITH NO
SIGNIFICANT WEATHER AND OR OBSTRUCTIONS TO VISIBILITY.


SDZ038>040-050-052>070-201400-
SOUTHEAST SOUTH DAKOTA

CITY           SKY/WX    TMP DP  RH WIND       PRES   REMARKS
CHAMBERLAIN    FOG       13  10  91 E5        29.99S VSB 3/4 WCI   5
HURON          FOG       25  24  96 S10       30.02S VSB 3/4 WCI  15
MADISON        CLOUDY    28  28 100 S12       30.03R WCI  18
MITCHELL       FOG       27  27 100 S12       30.05S VSB 1/4 WCI  17
SIOUX FALLS    CLOUDY    31  29  92 S7        30.06R FOG     WCI  24
WINNER         FAIR      24  16  71 SW3       29.97R
YANKTON        CLOUDY    34  30  86 S8        30.07R WCI  27
$$

MNZ071-072-080-081-089-090-097-098-201400-
SOUTHWEST MINNESOTA

CITY           SKY/WX    TMP DP  RH WIND       PRES   REMARKS
FAIRMONT       CLOUDY    28  25  86 S10       30.13R WCI  19
JACKSON        CLOUDY    30  28  93 S7        30.10F FOG     WCI  23
LUVERNE        CLOUDY    32  30  93 S8        30.08S FOG     WCI  25
MARSHALL       CLOUDY    30  27  86 S13       30.07F WCI  20
MONTEVIDEO     CLOUDY    30  30 100 SW8       30.07F WCI  23
PIPESTONE      CLOUDY    30  28  93 S3        30.03F FOG
REDWOOD FALLS  CLOUDY    32  28  85 S10       30.10S WCI  24
TRACY          CLOUDY    32  29  91 S7        30.08S WCI  25
WINDOM         CLOUDY    28  28 100 SE5       30.09F FOG     WCI  23
WORTHINGTON    CLOUDY    28  27  93 S9        30.08  WCI  20
$$

IAZ001>003-012>014-020>022-031-032-NEZ013-014-SDZ071-201400-
NORTHWEST IOWA

CITY           SKY/WX    TMP DP  RH WIND       PRES   REMARKS
CHEROKEE       CLOUDY    30  30 100 SE7       30.11S FOG     WCI  23
DENISON        CLOUDY    30  30 100 S8        30.10R FOG     WCI  23
ESTHERVILLE    CLOUDY    28  27  96 S10       30.12R WCI  19
LE MARS        CLOUDY    32  32 100 S7        30.10R FOG     WCI  26
ORANGE CITY    CLOUDY    30  30 100 S7        30.08R FOG     WCI  23
SHELDON        CLOUDY    30  30 100 S12       30.08R FOG     WCI  21
SIOUX CITY     CLOUDY    32  30  92 S8        30.10S FOG     WCI  25
SPENCER        CLOUDY    30  27  88 SE9       30.10F FOG     WCI  22
STORM LAKE     CLOUDY    28  28 100 SE10      30.11R FOG     WCI  19
$$

ABBREVIATIONS USED IN REMARKS
   TC - TEMPERATURE IN CELSIUS
  WCI - WIND CHILL INDEX
   HX - HEAT INDEX
  VSB - VISIBILITY



USA.gov is the U.S. government's official web portal to all federal, state and local government web resources and services.